Lid_Strength_Index
9 8 8 8 7 7 7 6 6 6 6 6 6 6 6 5 4 4 4 5 6 6 6 7 7 6 7 7 8 8 9 9 11 9 13 14 14 14 14 13 13 12 11
10 9 9 9 8 8 8 8 7 7 7 7 8 8 7 7 6 6 6 6 6 6 6 7 7 7 7 7 8 9 9 9 10 11 13 15 15 14 14 14 14 13 12
11 10 10 10 10 10 9 9 9 8 8 8 9 9 9 9 8 7 7 7 7 7 7 8 8 8 9 8 9 9 9 9 10 11 11 15 15 15 15 15 15 14 13
12 12 12 12 12 11 11 11 11 10 10 10 10 11 11 11 11 11 11 9 8 8 8 9 9 9 9 9 9 10 10 11 11 11 12 16 16 16 16 16 16 15 15
13 13 13 13 13 13 12 13 13 12 12 12 12 12 12 12 12 12 12 11 11 10 11 10 10 10 10 9 10 10 11 11 11 12 13 16 16 17 17 16 17 17 16
14 14 14 14 14 14 14 14 14 13 13 13 13 13 13 13 12 11 11 12 12 12 11 11 11 12 12 10 9 9 10 11 12 12 12 14 15 16 16 16 17 17 18
15 15 15 15 15 15 15 14 14 14 14 14 14 14 14 13 12 11 11 12 12 12 12 12 12 12 12 11 10 9 9 9 9 11 12 13 14 15 15 16 15 16 16
15 16 16 16 16 15 15 15 15 15 15 15 15 15 15 14 12 11 11 12 13 13 13 13 12 12 12 13 12 12 12 11 10 10 12 12 12 13 14 14 14 14 14
15 15 16 16 17 17 18 16 16 16 16 16 16 16 17 16 13 12 12 13 13 13 12 12 12 12 11 11 12 12 12 12 10 10 10 11 11 11 12 13 14 14 15
16 16 16 16 19 19 17 17 17 18 17 16 16 16 18 17 14 12 12 13 13 13 13 12 12 12 11 10 11 11 12 12 12 12 12 11 10 10 10 12 13 14 14
16 16 16 17 18 17 18 18 19 19 19 18 18 17 17 17 15 12 11 12 12 12 11 11 12 11 10 9 9 10 11 11 11 11 12 11 11 11 11 11 11 12 13
17 17 18 18 18 17 22 20 20 21 20 19 19 17 15 16 15 12 11 10 10 11 11 11 11 11 10 10 9 9 9 10 11 11 12 12 12 11 12 11 11 11 11
16 18 18 18 17 17 19 17 18 18 19 18 18 17 17 15 15 13 12 11 10 10 11 11 10 10 10 10 9 8 10 10 10 11 12 12 12 11 12 12 12 12 12
17 18 17 18 16 17 16 16 18 17 17 16 17 16 16 15 15 14 14 14 12 10 11 11 11 10 10 9 10 9 10 10 11 11 12 12 12 12 13 12 13 13 13
19 18 17 16 16 15 14 15 15 15 14 15 15 15 15 15 15 11 10 12 10 10 12 11 12 11 10 10 9 10 10 10 11 11 12 12 12 12 13 12 13 13 13
22 19 19 18 18 16 14 14 13 11 10 10 9 10 11 11 8 9 9 9 8 9 11 12 11 11 11 10 10 10 10 11 11 11 11 12 12 12 13 13 13 13 13
25 22 21 19 18 15 14 16 15 14 10 9 9 10 9 8 7 7 7 7 7 9 11 11 11 10 10 11 11 11 12 12 11 11 11 11 11 11 12 13 14 14 14
26 24 22 20 17 14 13 15 16 14 15 13 11 9 9 8 8 8 6 7 8 10 11 12 12 12 13 12 13 12 12 13 13 13 14 13 12 12 13 13 13 14 15
25 22 21 19 16 15 13 14 14 14 14 16 16 12 13 11 10 10 10 12 13 14 15 16 16 15 15 15 15 16 16 16 16 16 17 17 16 15 16 16 15 16 16
23 22 20 19 17 15 12 13 13 14 14 16 15 15 14 15 17 18 17 16 16 16 16 17 18 18 18 17 17 17 18 18 18 18 19 18 18 17 17 17 17 17 17
22 21 20 18 17 16 15 14 13 13 15 16 17 14 13 17 19 20 20 20 19 19 19 19 20 20 20 19 19 19 20 20 20 20 20 20 20 20 19 18 19 19 19
21 20 19 19 17 16 16 15 14 14 16 17 18 17 16 19 20 20 21 22 24 24 24 23 23 23 23 22 21 20 21 21 22 21 21 21 20 20 19 20 20 20 21
21 20 19 18 18 17 17 16 16 16 17 17 18 19 19 20 21 22 22 24 24 24 26 26 26 26 26 26 24 23 22 22 22 22 21 21 21 21 21 21 22 22 23
21 20 19 19 18 18 18 18 18 17 18 18 19 19 20 20 21 22 22 23 23 24 25 25 25 25 26 26 26 25 25 25 25 24 24 23 24 24 24 25 24 25 24
22 21 21 20 20 20 20 19 19 19 19 19 20 20 20 21 21 21 22 23 23 24 25 25 25 26 26 27 27 27 27 24 27 29 29 27 27 29 29 27 27 27 26
23 22 22 22 21 21 21 20 20 20 20 20 20 20 21 21 21 21 22 22 23 23 23 24 25 25 26 26 27 26 27 23 27 29 30 29 29 30 30 29 31 28 27